"2009-05-28 00:00:00",924791,6.795,301.8,2.601,0.426,15.02,106.5856,16.13,17.03,32.41,0,110.7,13.26,16.94,263.8
"2009-05-28 00:00:30",924792,6.053,301,2.317,0.536,15.09,106.585,16.13,17.04,32.31,0,110.7,13.25,16.94,263.0
"2009-05-28 00:01:00",924793,5.935,300.5,2.092,0.321,15.08,106.5873,16.14,17.07,32.27,0,110.7,13.25,16.95,262.5
"2009-05-28 00:01:30",924794,6.224,298.7,4.184,0.559,15.06,106.6002,16.17,17.08,32.23,0,110.7,13.25,16.98,260.7
"2009-05-28 00:02:00",924795,6.297,301.6,2.383,0.276,15.11,106.6188,16.22,17.11,32.21,0,110.7,13.25,17.03,263.6
"2009-05-28 00:02:30",924796,5.716,296.9,2.128,0.219,15.12,106.6185,16.22,17.1,32.18,0,110.7,13.25,17.03,258.9
"2009-05-28 00:03:00",924797,5.893,300.2,3.618,0.228,15.02,106.6185,16.22,17.13,32.13,0,110.7,13.25,17.03,262.2
"2009-05-28 00:03:30",924798,5.808,301,4.012,0.261,15.04,106.6212,16.22,17.17,32.08,0,110.7,13.25,17.03,263.0
"2009-05-28 00:04:00",924799,5.317,293,2.278,0.276,15.12,106.6413,16.28,17.16,31.98,0,110.7,13.25,17.08,255.0
"2009-05-28 00:04:30",924800,6.138,298,2.328,0.435,15,106.6511,16.3,17.21,31.92,0,110.7,13.25,17.11,260.0
"2009-05-28 00:05:00",924801,6.567,299.8,2.414,0.178,14.98,106.6505,16.3,17.21,31.89,0,110.7,13.25,17.11,261.8
"2009-05-28 00:05:30",924802,6.399,302.1,1.53,0.174,14.98,106.6499,16.3,17.23,31.81,0,110.7,13.25,17.11,264.1
"2009-05-28 00:06:00",924803,6.517,303.6,1.416,0.156,15.01,106.6628,16.33,17.25,31.78,0,110.7,13.25,17.14,265.6
"2009-05-28 00:06:30",924804,6.343,305.9,2.687,0.176,15.01,106.6779,16.37,17.26,31.72,0,110.7,13.25,17.18,267.9
"2009-05-28 00:07:00",924805,6.191,299.3,2.216,0.333,15.03,106.6806,16.38,17.28,31.68,0,110.7,13.26,17.19,261.3
"2009-05-28 00:07:30",924806,6.998,303.9,1.159,0.183,15.01,106.6785,16.37,17.3,31.5,0,110.7,13.26,17.18,265.9
"2009-05-28 00:08:00",924807,6.674,304,1.797,0.103,15.09,106.6805,16.38,17.32,31.46,0,110.7,13.25,17.19,266.0
"2009-05-28 00:08:30",924808,6.632,298.9,1.044,0.115,15,106.6981,16.42,17.33,31.36,0,110.7,13.25,17.23,260.9
"2009-05-28 00:09:00",924809,6.33,300.1,1.512,0.126,15.02,106.7064,16.44,17.35,31.24,0,110.7,13.25,17.25,262.1
"2009-05-28 00:09:30",924810,6.312,298.9,1.89,0.143,15.15,106.7069,16.44,17.37,31.19,0,110.7,13.25,17.25,260.9
"2009-05-28 00:10:00",924811,5.847,301.5,3.424,0.234,15.12,106.7078,16.45,17.4,31.25,0,110.7,13.25,17.26,263.5
"2009-05-28 00:10:30",924812,6.429,300.1,1.396,0.253,15.06,106.7075,16.45,17.42,31.16,0,110.7,13.25,17.25,262.1
"2009-05-28 00:11:00",924813,5.929,298.7,2.104,0.254,15.03,106.7257,16.49,17.42,31.02,0,110.7,13.25,17.30,260.7
"2009-05-28 00:11:30",924814,5.908,296,3.053,0.204,15.05,106.7326,16.51,17.45,31,0,110.7,13.25,17.32,258.0
"2009-05-28 00:12:00",924815,5.97,301,1.557,0.192,15.09,106.7325,16.51,17.47,30.95,0,110.7,13.25,17.32,263.0
"2009-05-28 00:12:30",924816,6.323,303.1,1.796,0.137,15.07,106.7325,16.51,17.48,30.89,0,110.7,13.25,17.32,265.1
"2009-05-28 00:13:00",924817,6.235,302.9,1.254,0.116,15.09,106.7362,16.52,17.5,30.85,0,110.7,13.25,17.33,264.9
"2009-05-28 00:13:30",924818,6.483,304.7,1.319,0.167,15.04,106.7556,16.57,17.51,30.76,0,110.7,13.25,17.38,266.7
"2009-05-28 00:14:00",924819,6.211,304.4,1.329,0.159,15.1,106.7678,16.6,17.53,30.69,0,110.7,13.25,17.41,266.4
"2009-05-28 00:14:30",924820,6.003,305.7,1.015,0.218,15.12,106.7618,16.58,17.54,30.72,0,110.7,13.25,17.39,267.7
"2009-05-28 00:15:00",924821,6.217,301.7,1.325,0.242,15.12,106.7624,16.59,17.56,30.64,0,110.7,13.25,17.40,263.7
"2009-05-28 00:15:30",924822,5.903,303.4,1.73,0.114,15.18,106.7597,16.58,17.58,30.64,0,110.7,13.25,17.39,265.4
"2009-05-28 00:16:00",924823,5.917,305.7,2.173,0.119,15.13,106.7727,16.61,17.59,30.56,0,110.7,13.25,17.42,267.7
"2009-05-28 00:16:30",924824,6.053,304.5,1.604,0.15,15.18,106.7853,16.64,17.62,30.49,0,110.7,13.25,17.46,266.5
"2009-05-28 00:17:00",924825,6.183,305.4,0.831,0.179,15.14,106.795,16.67,17.62,30.42,0,110.7,13.25,17.48,267.4
"2009-05-28 00:17:30",924826,6.322,305.5,0.774,0.087,15.16,106.7896,16.66,17.64,30.29,0,110.7,13.25,17.47,267.5
"2009-05-28 00:18:00",924827,6.225,305.7,0.741,0.083,15.2,106.7881,16.65,17.66,30.21,0,110.7,13.25,17.46,267.7
"2009-05-28 00:18:30",924828,6.268,306.1,0.654,0.083,15.18,106.7918,16.66,17.66,30.12,0,110.7,13.24,17.47,268.1
"2009-05-28 00:19:00",924829,6.057,306.1,1.126,0.122,15.16,106.808,16.7,17.68,30.02,0,110.7,13.24,17.51,268.1
"2009-05-28 00:19:30",924830,6.366,306.2,0.747,0.173,15.15,106.8181,16.73,17.68,30.02,0,110.7,13.24,17.54,268.2
"2009-05-28 00:20:00",924831,6.404,307.6,1.569,0.138,15.22,106.8197,16.73,17.73,30.01,0,110.7,13.24,17.54,269.6
"2009-05-28 00:20:30",924832,6.179,307.3,1.954,0.149,15.25,106.8203,16.73,17.74,30.01,0,110.7,13.24,17.55,269.3
"2009-05-28 00:21:00",924833,6.058,307.7,1.651,0.067,15.15,106.8197,16.73,17.75,29.94,0,110.7,13.24,17.54,269.7
"2009-05-28 00:21:30",924834,6.129,307.8,0.757,0.147,15.24,106.8225,16.74,17.78,29.79,0,110.7,13.24,17.55,269.8
"2009-05-28 00:22:00",924835,5.975,305,1.444,0.135,15.32,106.8338,16.77,17.78,29.86,0,110.8,13.25,17.58,267.0
"2009-05-28 00:22:30",924836,6.219,306.3,2.893,0.155,15.27,106.8495,16.81,17.79,29.98,0,110.8,13.25,17.62,268.3
"2009-05-28 00:23:00",924837,5.925,310.8,1.072,0.278,15.3,106.8535,16.82,17.81,30,0,110.8,13.25,17.63,272.8
"2009-05-28 00:23:30",924838,5.548,310.9,1.147,0.201,15.31,106.8535,16.82,17.82,30.01,0,110.8,13.25,17.63,272.9
"2009-05-28 00:24:00",924839,6.073,307,1.573,0.199,15.33,106.8535,16.82,17.84,29.87,0,110.8,13.25,17.63,269.0
"2009-05-28 00:24:30",924840,5.792,305.8,1.795,0.147,15.33,106.854,16.82,17.86,29.7,0,110.8,13.25,17.63,267.8
"2009-05-28 00:25:00",924841,5.881,304.6,0.988,0.104,15.38,106.8625,16.84,17.85,29.69,0,110.8,13.25,17.65,266.6
"2009-05-28 00:25:30",924842,5.929,305.6,1.38,0.107,15.36,106.8743,16.87,17.88,29.6,0,110.8,13.25,17.68,267.6
"2009-05-28 00:26:00",924843,5.858,305.9,0.768,0.133,15.3,106.8864,16.9,17.89,29.37,0,110.8,13.25,17.72,267.9
"2009-05-28 00:26:30",924844,5.884,307,0.706,0.096,15.3,106.8872,16.91,17.9,29.25,0,110.8,13.25,17.72,269.0
"2009-05-28 00:27:00",924845,5.763,304,1.322,0.174,15.03,106.8872,16.91,17.91,29.39,0,110.8,13.25,17.72,266.0
"2009-05-28 00:27:30",924846,6.38,304.6,1.765,0.313,15.01,106.8872,16.91,17.93,30.51,0,110.8,13.25,17.72,266.6
"2009-05-28 00:28:00",924847,6.125,304.9,1.294,0.268,15.08,106.8872,16.91,17.94,30.56,0,110.8,13.25,17.72,266.9
"2009-05-28 00:28:30",924848,6.101,306.9,2.257,0.227,15.11,106.8872,16.91,17.95,29.83,0,110.8,13.25,17.72,268.9
"2009-05-28 00:29:00",924849,6.239,310.6,2.084,0.202,15.17,106.8872,16.91,17.96,29.83,0,110.8,13.25,17.72,272.6
"2009-05-28 00:29:30",924850,5.989,312.4,1.324,0.175,15.2,106.8878,16.91,17.96,29.61,0,110.8,13.25,17.72,274.4
"2009-05-28 00:30:00",924851,5.723,310.3,1.09,0.158,15.25,106.8872,16.91,17.97,29.68,0,110.8,13.25,17.72,272.3
"2009-05-28 00:30:30",924852,5.974,310.4,0.781,0.189,15.18,106.8872,16.91,17.98,29.61,0,110.8,13.25,17.72,272.4
"2009-05-28 00:31:00",924853,5.662,308.3,0.983,0.181,15.24,106.8872,16.91,17.98,29.94,0,110.8,13.25,17.72,270.3
"2009-05-28 00:31:30",924854,5.259,305.5,2.385,0.162,15.3,106.8872,16.91,17.97,29.57,0,110.8,13.25,17.72,267.5
"2009-05-28 00:32:00",924855,5.478,305.9,0.581,0.202,15.19,106.8872,16.91,17.97,29.31,0,110.8,13.25,17.72,267.9
"2009-05-28 00:32:30",924856,5.456,306,0.775,0.133,15.19,106.8872,16.91,17.99,29.67,0,110.8,13.25,17.72,268.0
"2009-05-28 00:33:00",924857,5.214,303.7,1.119,0.075,15.29,106.8872,16.91,17.98,29.39,0,110.8,13.25,17.72,265.7
"2009-05-28 00:33:30",924858,5.154,304.5,0.862,0.064,15.31,106.8872,16.91,17.97,29.52,0,110.8,13.25,17.72,266.5
"2009-05-28 00:34:00",924859,5.081,305.4,0.706,0.077,15.24,106.8872,16.91,17.98,29.92,0,110.8,13.24,17.72,267.4
"2009-05-28 00:34:30",924860,4.864,305.5,0.813,0.11,15.16,106.8872,16.91,17.99,30.1,0,110.8,13.24,17.72,267.5
"2009-05-28 00:35:00",924861,4.631,307,0.707,0.08,15.29,106.8872,16.91,18.01,29.68,0,110.8,13.24,17.72,269.0
"2009-05-28 00:35:30",924862,4.427,307.2,0.826,0.058,15.28,106.8872,16.91,18,29.5,0,110.8,13.24,17.72,269.2
"2009-05-28 00:36:00",924863,4.587,307,1.594,0.104,15.25,106.8872,16.91,18,29.42,0,110.8,13.24,17.72,269.0
"2009-05-28 00:36:30",924864,4.356,307.2,1.511,0.141,15.2,106.8884,16.91,17.99,29.59,0,110.8,13.24,17.72,269.2
"2009-05-28 00:37:00",924865,4.416,304.7,1.018,0.099,15.39,106.8943,16.92,17.99,29.52,0,110.8,13.24,17.74,266.7
"2009-05-28 00:37:30",924866,4.503,305.2,0.356,0.045,15.35,106.8985,16.94,18.01,29.42,0,110.8,13.24,17.75,267.2
"2009-05-28 00:38:00",924867,4.405,307.8,1.275,0.043,15.14,106.9055,16.95,18,29.39,0,110.8,13.24,17.76,269.8
"2009-05-28 00:38:30",924868,4.311,307.9,2.233,0.066,15.21,106.9111,16.97,18,29.51,0,110.8,13.24,17.78,269.9
"2009-05-28 00:39:00",924869,4.291,303.3,1.324,0.062,15.38,106.9134,16.97,18.01,29.26,0,110.8,13.24,17.78,265.3
"2009-05-28 00:39:30",924870,4.289,302,0.859,0.058,15.37,106.9176,16.98,18.01,29.08,0,110.8,13.25,17.80,264.0
"2009-05-28 00:40:00",924871,4.2,301.8,1.357,0.076,15.31,106.921,16.99,18.02,29.06,0,110.8,13.25,17.80,263.8
"2009-05-28 00:40:30",924872,4.144,301.6,1.036,0.065,15.26,106.921,16.99,18.03,29.1,0,110.8,13.25,17.80,263.6
"2009-05-28 00:41:00",924873,3.984,300.6,0.839,0.119,15.22,106.921,16.99,18.02,29.07,0,110.8,13.25,17.80,262.6
"2009-05-28 00:41:30",924874,4.013,297.9,2.042,0.088,15.3,106.921,16.99,18.04,28.98,0,110.8,13.25,17.80,259.9
"2009-05-28 00:42:00",924875,4.031,300.9,2.237,0.079,15.22,106.921,16.99,18.03,28.97,0,110.8,13.25,17.80,262.9
"2009-05-28 00:42:30",924876,3.994,298.9,1.225,0.09,15.21,106.921,16.99,18.05,28.97,0,110.8,13.25,17.80,260.9
"2009-05-28 00:43:00",924877,3.959,299.2,1.196,0.092,15.2,106.9213,16.99,18.05,28.97,0,110.8,13.25,17.80,261.2
"2009-05-28 00:43:30",924878,3.813,300.8,0.922,0.06,15.26,106.9294,17.01,18.05,28.96,0,110.8,13.25,17.83,262.8
"2009-05-28 00:44:00",924879,3.677,299.5,0.83,0.086,15.31,106.9432,17.05,18.07,28.94,0,110.8,13.25,17.86,261.5
"2009-05-28 00:44:30",924880,3.577,299.9,1.185,0.071,15.36,106.9517,17.07,18.08,28.92,0,110.8,13.25,17.88,261.9
"2009-05-28 00:45:00",924881,3.33,302.1,1.44,0.068,15.18,106.9545,17.08,18.08,28.91,0,110.8,13.25,17.89,264.1
"2009-05-28 00:45:30",924882,3.208,304.9,1.099,0.047,15.24,106.9548,17.08,18.09,28.97,0,110.8,13.25,17.89,266.9
"2009-05-28 00:46:00",924883,3.267,302.9,1.09,0.057,15.17,106.9548,17.08,18.11,29,0,110.8,13.24,17.89,264.9
"2009-05-28 00:46:30",924884,3.29,301,1.093,0.028,15.22,106.9548,17.08,18.11,28.92,0,110.8,13.24,17.89,263.0
"2009-05-28 00:47:00",924885,3.289,302.2,0.504,0.054,15.18,106.9573,17.09,18.13,28.93,0,110.8,13.24,17.90,264.2
"2009-05-28 00:47:30",924886,3.243,300.9,1.519,0.058,15.23,106.9697,17.12,18.14,28.96,0,110.8,13.24,17.93,262.9
"2009-05-28 00:48:00",924887,3.351,294.3,1.385,0.047,15.19,106.9818,17.15,18.13,28.92,0,110.8,13.24,17.96,256.3
"2009-05-28 00:48:30",924888,3.27,295.5,1.531,0.059,15.14,106.9882,17.17,18.16,28.86,0,110.8,13.24,17.98,257.5
"2009-05-28 00:49:00",924889,3.154,295.3,0.621,0.055,15.06,106.9885,17.17,18.16,28.89,0,110.8,13.24,17.98,257.3
"2009-05-28 00:49:30",924890,3.02,296.2,0.987,0.055,15.1,106.9885,17.17,18.18,28.95,0,110.8,13.24,17.98,258.2
"2009-05-28 00:50:00",924891,2.919,298.2,0.517,0.028,15.18,106.9888,17.17,18.19,29,0,110.8,13.25,17.98,260.2
"2009-05-28 00:50:30",924892,2.944,299.8,0.801,0.054,15.25,106.9964,17.19,18.21,29.01,0,110.8,13.24,18.00,261.8
"2009-05-28 00:51:00",924893,2.973,301,1.021,0.05,15.34,107.0079,17.22,18.22,28.97,0,110.8,13.24,18.03,263.0
"2009-05-28 00:51:30",924894,3.083,303.8,1.01,0.039,15.22,107.0198,17.25,18.22,28.84,0,110.8,13.24,18.06,265.8
"2009-05-28 00:52:00",924895,3.19,305.9,0.801,0.083,15.23,107.0223,17.25,18.23,28.64,0,110.8,13.23,18.06,267.9
"2009-05-28 00:52:30",924896,3.355,304.5,1.031,0.062,15.15,107.0223,17.25,18.23,28.52,0,110.8,13.23,18.06,266.5
"2009-05-28 00:53:00",924897,3.531,304,0.854,0.13,15.05,107.0223,17.25,18.27,28.46,0,110.8,13.23,18.06,266.0
"2009-05-28 00:53:30",924898,3.72,299.3,2.598,0.097,14.89,107.0223,17.25,18.26,28.39,0,110.8,13.23,18.06,261.3
"2009-05-28 00:54:00",924899,3.569,298.7,1.134,0.081,14.83,107.0321,17.28,18.28,28.34,0,110.8,13.23,18.09,260.7
"2009-05-28 00:54:30",924900,3.233,299.9,2.638,0.169,15.12,107.0408,17.3,18.29,28.29,0,110.8,13.23,18.11,261.9
"2009-05-28 00:55:00",924901,2.94,303.5,0.569,0.051,15.36,107.0535,17.33,18.31,28.32,0,110.8,13.23,18.14,265.5
"2009-05-28 00:55:30",924902,2.975,303.3,0.607,0.039,15.47,107.0557,17.34,18.32,28.36,0,110.8,13.23,18.15,265.3
"2009-05-28 00:56:00",924903,2.918,301.6,0.672,0.033,15.38,107.056,17.34,18.34,28.36,0,110.8,13.24,18.15,263.6
"2009-05-28 00:56:30",924904,2.868,300.1,0.764,0.032,15.24,107.056,17.34,18.33,28.38,0,110.8,13.24,18.15,262.1
"2009-05-28 00:57:00",924905,2.867,299.2,0.612,0.036,15.22,107.056,17.34,18.34,28.39,0,110.8,13.24,18.15,261.2
"2009-05-28 00:57:30",924906,2.889,300.2,0.593,0.019,15.25,107.056,17.34,18.34,28.38,0,110.8,13.24,18.15,262.2
"2009-05-28 00:58:00",924907,2.838,301.4,0.679,0.041,15.23,107.056,17.34,18.35,28.37,0,110.8,13.24,18.15,263.4
"2009-05-28 00:58:30",924908,2.916,302.3,0.73,0.043,15.34,107.0574,17.34,18.38,28.34,0,110.8,13.24,18.15,264.3
"2009-05-28 00:59:00",924909,2.898,302.3,0.584,0.051,15.33,107.0695,17.37,18.38,28.29,0,110.8,13.24,18.19,264.3
"2009-05-28 00:59:30",924910,2.906,304.7,1.226,0.123,15.28,107.0777,17.39,18.39,28.27,0,110.8,13.24,18.21,266.7
"2009-05-28 01:00:00",924911,3.213,303.7,1.016,0.144,15.24,107.0814,17.4,18.38,28.2,0,110.8,13.24,18.22,265.7
"2009-05-28 01:00:30",924912,3.293,303,0.989,0.042,15.15,107.0855,17.41,18.39,28.11,0,110.8,13.24,18.23,265.0
"2009-05-28 01:01:00",924913,3.189,303.8,0.625,0.06,15.29,107.0889,17.42,18.4,28.08,0,110.8,13.24,18.24,265.8
"2009-05-28 01:01:30",924914,3.103,306.1,1.643,0.038,15.31,107.0889,17.42,18.4,28.06,0,110.8,13.24,18.24,268.1
"2009-05-28 01:02:00",924915,3.001,306.5,1.267,0.043,15.24,107.0886,17.42,18.41,28.08,0,110.8,13.24,18.24,268.5
"2009-05-28 01:02:30",924916,3.1,306.4,1.592,0.054,15.29,107.088,17.42,18.41,27.97,0,110.8,13.24,18.23,268.4
"2009-05-28 01:03:00",924917,3.126,307.6,0.358,0.072,15.33,107.0847,17.41,18.42,27.95,0,110.8,13.24,18.23,269.6
"2009-05-28 01:03:30",924918,3.078,307,0.525,0.037,15.34,107.0874,17.42,18.43,27.9,0,110.8,13.24,18.23,269.0
"2009-05-28 01:04:00",924919,3.094,308.8,0.89,0.038,15.27,107.0856,17.41,18.43,27.89,0,110.8,13.24,18.23,270.8
"2009-05-28 01:04:30",924920,3.191,309.2,0.363,0.099,15.25,107.0868,17.42,18.44,27.82,0,110.8,13.24,18.23,271.2
"2009-05-28 01:05:00",924921,3.396,310.8,0.76,0.051,15.21,107.0859,17.42,18.44,27.68,0,110.8,13.24,18.23,272.8
"2009-05-28 01:05:30",924922,3.183,309.1,0.98,0.083,15.11,107.0855,17.41,18.46,27.75,0,110.8,13.24,18.23,271.1
"2009-05-28 01:06:00",924923,3.186,309.4,1.404,0.122,15.11,107.0885,17.42,18.46,27.66,0,110.8,13.24,18.23,271.4
"2009-05-28 01:06:30",924924,3.477,308.6,1.962,0.234,15.13,107.0872,17.42,18.46,27.96,0,110.8,13.24,18.23,270.6
"2009-05-28 01:07:00",924925,3.144,308.3,0.469,0.062,15.41,107.084,17.41,18.46,27.88,0,110.8,13.24,18.22,270.3
"2009-05-28 01:07:30",924926,3.105,306.5,0.712,0.063,15.41,107.0832,17.41,18.47,27.68,0,110.8,13.23,18.22,268.5
"2009-05-28 01:08:00",924927,3.035,306.6,0.778,0.052,15.36,107.0835,17.41,18.47,27.76,0,110.8,13.23,18.22,268.6
"2009-05-28 01:08:30",924928,3.082,306.5,0.51,0.022,15.38,107.0844,17.41,18.47,27.74,0,110.8,13.23,18.22,268.5
"2009-05-28 01:09:00",924929,3.066,306,0.511,0.028,15.39,107.0811,17.4,18.47,27.64,0,110.8,13.23,18.22,268.0
"2009-05-28 01:09:30",924930,3.023,307.3,0.895,0.027,15.33,107.0817,17.4,18.46,27.68,0,110.8,13.23,18.22,269.3
"2009-05-28 01:10:00",924931,2.915,307.5,0.972,0.031,15.27,107.0823,17.41,18.46,27.67,0,110.8,13.23,18.22,269.5
"2009-05-28 01:10:30",924932,2.937,307.2,0.71,0.028,15.27,107.0814,17.4,18.46,27.71,0,110.8,13.23,18.22,269.2
"2009-05-28 01:11:00",924933,2.917,308.7,0.428,0.058,15.22,107.0814,17.4,18.46,27.7,0,110.8,13.23,18.22,270.7
"2009-05-28 01:11:30",924934,2.832,308.8,0.309,0.027,15.21,107.0817,17.4,18.46,27.64,0,110.8,13.23,18.22,270.8
"2009-05-28 01:12:00",924935,2.755,308.8,0.322,0.024,15.35,107.0811,17.4,18.46,27.6,0,110.8,13.23,18.22,270.8
"2009-05-28 01:12:30",924936,2.79,309.6,0.516,0.035,15.37,107.082,17.41,18.46,27.63,0,110.8,13.23,18.22,271.6
"2009-05-28 01:13:00",924937,2.696,309.7,0.802,0.046,15.29,107.0817,17.4,18.46,27.69,0,110.8,13.23,18.22,271.7
"2009-05-28 01:13:30",924938,2.674,309.8,1.124,0.061,15.37,107.0829,17.41,18.46,27.71,0,110.8,13.24,18.22,271.8
"2009-05-28 01:14:00",924939,2.676,310.4,0.576,0.03,15.36,107.082,17.41,18.46,27.69,0,110.8,13.24,18.22,272.4
"2009-05-28 01:14:30",924940,2.692,310.1,1.474,0.036,15.4,107.0832,17.41,18.45,27.72,0,110.8,13.24,18.22,272.1
"2009-05-28 01:15:00",924941,2.636,311.2,0.847,0.067,15.38,107.0826,17.41,18.46,27.72,0,110.8,13.24,18.22,273.2
"2009-05-28 01:15:30",924942,2.61,312.5,0.939,0.055,15.37,107.0828,17.41,18.45,27.74,0,110.8,13.24,18.22,274.5
"2009-05-28 01:16:00",924943,2.562,312.5,0.619,0.044,15.25,107.0838,17.41,18.46,27.76,0,110.8,13.24,18.22,274.5
"2009-05-28 01:16:30",924944,2.456,312.5,0.419,0.039,15.2,107.0837,17.41,18.47,27.77,0,110.8,13.24,18.22,274.5
"2009-05-28 01:17:00",924945,2.396,312.4,0.319,0.026,15.25,107.0858,17.42,18.48,27.79,0,110.8,13.24,18.23,274.4
"2009-05-28 01:17:30",924946,2.358,312.1,0.623,0.038,15.32,107.0861,17.42,18.46,27.76,0,110.8,13.24,18.23,274.1
"2009-05-28 01:18:00",924947,2.425,310,0.927,0.035,15.48,107.0867,17.42,18.46,27.67,0,110.8,13.24,18.23,272.0
"2009-05-28 01:18:30",924948,2.371,307.3,0.818,0.037,15.4,107.0843,17.41,18.46,27.67,0,110.8,13.24,18.22,269.3
"2009-05-28 01:19:00",924949,2.368,305.8,0.527,0.035,15.33,107.0862,17.42,18.45,27.67,0,110.8,13.24,18.23,267.8
"2009-05-28 01:19:30",924950,2.282,305.8,0.526,0.047,15.27,107.0844,17.41,18.46,27.7,0,110.8,13.24,18.22,267.8
"2009-05-28 01:20:00",924951,2.299,306.5,1.131,0.041,15.33,107.085,17.41,18.47,27.71,0,110.8,13.24,18.23,268.5
"2009-05-28 01:20:30",924952,2.312,304.3,1.166,0.026,15.24,107.0868,17.42,18.46,27.73,0,110.8,13.24,18.23,266.3
"2009-05-28 01:21:00",924953,2.309,306.7,1.062,0.034,15.32,107.0847,17.41,18.46,27.76,0,110.8,13.24,18.23,268.7
"2009-05-28 01:21:30",924954,2.266,308.7,0.316,0.014,15.27,107.0856,17.41,18.45,27.75,0,110.8,13.24,18.23,270.7
"2009-05-28 01:22:00",924955,2.277,309.7,0.849,0.031,15.37,107.0862,17.42,18.47,27.78,0,110.8,13.24,18.23,271.7
"2009-05-28 01:22:30",924956,2.194,311.1,0.363,0.056,15.37,107.0859,17.42,18.46,27.79,0,110.8,13.24,18.23,273.1
"2009-05-28 01:23:00",924957,2.099,311.2,0.966,0.035,15.39,107.085,17.41,18.45,27.8,0,110.8,13.24,18.23,273.2
"2009-05-28 01:23:30",924958,2.124,311.1,1.328,0.028,15.38,107.0889,17.42,18.46,27.86,0,110.8,13.24,18.24,273.1
"2009-05-28 01:24:00",924959,2.317,309.1,0.393,0.058,15.48,107.0889,17.42,18.45,27.83,0,110.8,13.24,18.24,271.1
"2009-05-28 01:24:30",924960,2.315,310.9,0.9,0.015,15.58,107.088,17.42,18.46,27.79,0,110.8,13.24,18.23,272.9
"2009-05-28 01:25:00",924961,2.335,312.3,0.544,0.026,15.6,107.0897,17.43,18.46,27.83,0,110.8,13.23,18.24,274.3
"2009-05-28 01:25:30",924962,2.312,314.9,0.84,0.031,15.49,107.0892,17.42,18.45,27.82,0,110.7,13.23,18.24,276.9
"2009-05-28 01:26:00",924963,2.325,316.1,0.354,0.018,15.32,107.0892,17.42,18.46,27.83,0,110.8,13.23,18.24,278.1
"2009-05-28 01:26:30",924964,2.338,316.5,0.51,0.023,15.4,107.0886,17.42,18.44,27.89,0,110.7,13.23,18.24,278.5
"2009-05-28 01:27:00",924965,2.262,316.3,0.437,0.049,15.44,107.088,17.42,18.45,27.95,0,110.8,13.23,18.23,278.3
"2009-05-28 01:27:30",924966,2.242,315.9,0.456,0.036,15.52,107.0892,17.42,18.44,27.93,0,110.8,13.23,18.24,277.9
"2009-05-28 01:28:00",924967,2.315,316.9,1.049,0.039,15.41,107.0886,17.42,18.43,27.93,0,110.8,13.23,18.24,278.9
"2009-05-28 01:28:30",924968,2.696,313.6,1.391,0.222,15.33,107.0889,17.42,18.43,28.07,0,110.7,13.23,18.24,275.6
"2009-05-28 01:29:00",924969,2.587,315.1,2.521,0.179,15.43,107.0895,17.42,18.43,28.46,0,110.7,13.23,18.24,277.1
"2009-05-28 01:29:30",924970,2.351,321.1,0.509,0.036,15.47,107.0895,17.42,18.43,28.33,0,110.7,13.23,18.24,283.1
"2009-05-28 01:30:00",924971,2.291,321.7,0.324,0.032,15.36,107.0895,17.42,18.43,28.01,0,110.7,13.24,18.24,283.7
"2009-05-28 01:30:30",924972,2.223,321.2,0.543,0.038,15.32,107.0898,17.43,18.44,27.96,0,110.7,13.24,18.24,283.2
"2009-05-28 01:31:00",924973,2.27,321,0.533,0.017,15.42,107.0895,17.42,18.43,27.95,0,110.7,13.24,18.24,283.0
"2009-05-28 01:31:30",924974,2.266,321.8,0.34,0.019,15.38,107.0895,17.42,18.41,27.92,0,110.7,13.24,18.24,283.8
"2009-05-28 01:32:00",924975,2.276,321,0.624,0.015,15.37,107.0864,17.42,18.4,27.93,0,110.7,13.24,18.23,283.0
"2009-05-28 01:32:30",924976,2.2,320.8,0.685,0.023,15.4,107.0802,17.4,18.38,27.95,0,110.7,13.24,18.21,282.8
"2009-05-28 01:33:00",924977,2.218,319.3,0.692,0.033,15.49,107.0785,17.4,18.37,27.96,0,110.7,13.24,18.21,281.3
"2009-05-28 01:33:30",924978,2.321,316,1.271,0.064,15.53,107.0785,17.4,18.38,27.99,0,110.7,13.24,18.21,278.0
"2009-05-28 01:34:00",924979,2.39,315.1,0.535,0.063,15.49,107.0769,17.39,18.36,28.1,0,110.7,13.24,18.21,277.1
"2009-05-28 01:34:30",924980,2.333,314.4,0.751,0.041,15.59,107.0701,17.37,18.37,28.13,0,110.8,13.24,18.19,276.4
"2009-05-28 01:35:00",924981,2.282,314.3,0.694,0.031,15.72,107.0673,17.37,18.37,28.12,0,110.7,13.24,18.18,276.3
"2009-05-28 01:35:30",924982,2.256,314.4,0.21,0.026,15.8,107.06,17.35,18.36,28.12,0,110.7,13.24,18.16,276.4
"2009-05-28 01:36:00",924983,2.292,314,0.483,0.032,15.78,107.0566,17.34,18.36,28.1,0,110.7,13.24,18.15,276.0
"2009-05-28 01:36:30",924984,2.266,313.3,0.042,0.015,15.77,107.056,17.34,18.36,28.15,0,110.7,13.24,18.15,275.3
"2009-05-28 01:37:00",924985,2.288,312.7,0.736,0.038,15.75,107.056,17.34,18.36,28.15,0,110.7,13.24,18.15,274.7
"2009-05-28 01:37:30",924986,2.361,312.3,0.484,0.046,15.85,107.056,17.34,18.35,28.12,0,110.7,13.24,18.15,274.3
"2009-05-28 01:38:00",924987,2.369,313.9,0.815,0.036,15.77,107.056,17.34,18.34,28.16,0,110.7,13.24,18.15,275.9
"2009-05-28 01:38:30",924988,2.421,314.8,0.321,0.036,15.56,107.056,17.34,18.35,28.17,0,110.7,13.24,18.15,276.8
"2009-05-28 01:39:00",924989,2.419,314.8,0.32,0.036,15.65,107.056,17.34,18.34,28.16,0,110.7,13.24,18.15,276.8
"2009-05-28 01:39:30",924990,2.394,314.8,0.301,0,15.76,107.0544,17.33,18.33,28.18,0,110.7,13.24,18.15,276.8
"2009-05-28 01:40:00",924991,2.429,314.5,0.638,0.038,15.91,107.0442,17.31,18.33,28.23,0,110.7,13.24,18.12,276.5
"2009-05-28 01:40:30",924992,2.331,312.7,0.627,0.05,16.46,107.0254,17.26,18.32,28.23,0,110.7,13.24,18.07,274.7
"2009-05-28 01:41:00",924993,2.324,312.4,0.629,0.019,16.53,107.0223,17.25,18.31,28.23,0,110.7,13.24,18.06,274.4
"2009-05-28 01:41:30",924994,2.342,312.1,0.718,0.034,16.55,107.022,17.25,18.29,28.26,0,110.7,13.24,18.06,274.1
"2009-05-28 01:42:00",924995,2.295,312,1.056,0.03,16.62,107.011,17.22,18.29,28.38,0,110.7,13.24,18.04,274.0
"2009-05-28 01:42:30",924996,2.274,309.9,0.562,0.022,16.45,106.9896,17.17,18.25,28.37,0,110.7,13.24,17.98,271.9
"2009-05-28 01:43:00",924997,2.251,308.7,0.539,0.032,16.37,106.9885,17.17,18.25,28.38,0,110.7,13.24,17.98,270.7
"2009-05-28 01:43:30",924998,2.267,309.1,0.671,0.018,16.52,106.977,17.14,18.22,28.46,0,110.7,13.24,17.95,271.1
"2009-05-28 01:44:00",924999,2.264,308.3,0.858,0.035,16.46,106.9556,17.08,18.21,28.52,0,110.7,13.24,17.89,270.3
"2009-05-28 01:44:30",925000,2.26,307.1,0.674,0.039,16.39,106.9548,17.08,18.2,28.55,0,110.7,13.24,17.89,269.1
"2009-05-28 01:45:00",925001,2.327,308.5,0.534,0.022,16.48,106.9519,17.07,18.17,28.6,0,110.7,13.24,17.88,270.5
"2009-05-28 01:45:30",925002,2.33,307.9,0.603,0.004,16.49,106.9264,17.01,18.15,28.65,0,110.7,13.24,17.82,269.9
"2009-05-28 01:46:00",925003,2.298,307.8,0.859,0.032,16.51,106.9228,17,18.13,28.71,0,110.7,13.24,17.81,269.8
"2009-05-28 01:46:30",925004,2.295,307.9,0.923,0.04,16.49,106.9227,17,18.1,28.75,0,110.7,13.24,17.81,269.9
"2009-05-28 01:47:00",925005,2.359,308.2,1.236,0.035,16.51,106.8982,16.93,18.09,28.84,0,110.7,13.24,17.75,270.2
"2009-05-28 01:47:30",925006,2.456,311.1,0.944,0.035,16.59,106.8921,16.92,18.04,28.9,0,110.7,13.25,17.73,273.1